| time (UTC) | temp F | wind direction | speed MPH | gust MPH | rain 1hr in | rain 24hr in | rain mn in | humidity % | barometer mb |
| 20260507003804 | 70 | 296 | 2.0 | 5.0 | 0.00 | 0.00 | 0.00 | 43 | 1015.3 |
| 20260507003604 | 70 | 295 | 2.0 | 7.0 | 0.00 | 0.00 | 0.00 | 45 | 1015.3 |
| 20260507003404 | 70 | 291 | 3.0 | 8.0 | 0.00 | 0.00 | 0.00 | 43 | 1015.3 |
| 20260507003225 | 70 | 290 | 3.0 | 8.0 | 0.00 | 0.00 | 0.00 | 44 | 1015.3 |
| 20260507003025 | 70 | 287 | 3.0 | 8.0 | 0.00 | 0.00 | 0.00 | 45 | 1015.3 |
| 20260507002825 | 70 | 285 | 3.0 | 8.0 | 0.00 | 0.00 | 0.00 | 44 | 1015.3 |
| 20260507002604 | 70 | 287 | 3.0 | 8.0 | 0.00 | 0.00 | 0.00 | 44 | 1015.3 |
| 20260507002404 | 70 | 291 | 2.0 | 8.0 | 0.00 | 0.00 | 0.00 | 43 | 1015.3 |
| 20260507002204 | 70 | 297 | 2.0 | 8.0 | 0.00 | 0.00 | 0.00 | 43 | 1015.2 |
| 20260507002004 | 70 | 297 | 2.0 | 8.0 | 0.00 | 0.00 | 0.00 | 43 | 1015.2 |
| 20260507001804 | 70 | 298 | 3.0 | 8.0 | 0.00 | 0.00 | 0.00 | 43 | 1015.2 |
| 20260507001604 | 70 | 295 | 3.0 | 8.0 | 0.00 | 0.00 | 0.00 | 43 | 1015.2 |
| 20260507001404 | 70 | 294 | 3.0 | 8.0 | 0.00 | 0.00 | 0.00 | 43 | 1015.3 |
| 20260507001204 | 70 | 292 | 3.0 | 8.0 | 0.00 | 0.00 | 0.00 | 43 | 1015.2 |
| 20260507001004 | 70 | 295 | 3.0 | 7.0 | 0.00 | 0.00 | 0.00 | 42 | 1015.3 |
| 20260507000804 | 70 | 297 | 2.0 | 9.0 | 0.00 | 0.00 | 0.00 | 43 | 1015.2 |
| 20260507000604 | 70 | 302 | 2.0 | 9.0 | 0.00 | 0.00 | 0.00 | 43 | 1015.2 |
| 20260507000427 | 70 | 303 | 2.0 | 9.0 | 0.00 | 0.00 | 0.00 | 42 | 1015.2 |
| 20260507000205 | 70 | 301 | 2.0 | 9.0 | 0.00 | 0.00 | 0.00 | 44 | 1015.1 |
| 20260507000004 | 70 | 298 | 3.0 | 9.0 | 0.00 | 0.00 | 0.00 | 43 | 1015.1 |
| 20260506235804 | 70 | 293 | 3.0 | 7.0 | 0.00 | 0.00 | 0.00 | 44 | 1015.1 |
| 20260506235604 | 70 | 294 | 3.0 | 8.0 | 0.00 | 0.00 | 0.00 | 44 | 1015.2 |
| 20260506235425 | 70 | 295 | 3.0 | 8.0 | 0.00 | 0.00 | 0.00 | 43 | 1015.1 |
| 20260506235204 | 70 | 298 | 3.0 | 8.0 | 0.00 | 0.00 | 0.00 | 43 | 1015.2 |
| 20260506235004 | 70 | 302 | 3.0 | 8.0 | 0.00 | 0.00 | 0.00 | 44 | 1015.2 |
| 20260506234804 | 70 | 301 | 2.0 | 8.0 | 0.00 | 0.00 | 0.00 | 44 | 1015.2 |
| 20260506234604 | 70 | 302 | 2.0 | 7.0 | 0.00 | 0.00 | 0.00 | 43 | 1015.1 |
| 20260506234404 | 70 | 300 | 2.0 | 7.0 | 0.00 | 0.00 | 0.00 | 43 | 1015.2 |
| 20260506234225 | 70 | 296 | 2.0 | 6.0 | 0.00 | 0.00 | 0.00 | 44 | 1015.1 |
| 20260506234025 | 70 | 295 | 3.0 | 9.0 | 0.00 | 0.00 | 0.00 | 44 | 1015.1 |
| 20260506233825 | 70 | 296 | 3.0 | 9.0 | 0.00 | 0.00 | 0.00 | 44 | 1015.2 |
| 20260506233604 | 70 | 292 | 4.0 | 9.0 | 0.00 | 0.00 | 0.00 | 44 | 1015.2 |
| 20260506233404 | 70 | 293 | 4.0 | 9.0 | 0.00 | 0.00 | 0.00 | 44 | 1015.2 |
| 20260506233204 | 70 | 292 | 4.0 | 9.0 | 0.00 | 0.00 | 0.00 | 44 | 1015.2 |
| 20260506233004 | 70 | 295 | 4.0 | 9.0 | 0.00 | 0.00 | 0.00 | 43 | 1015.2 |
| 20260506232825 | 70 | 298 | 3.0 | 9.0 | 0.00 | 0.00 | 0.00 | 44 | 1015.2 |
| 20260506232604 | 70 | 300 | 3.0 | 9.0 | 0.00 | 0.00 | 0.00 | 43 | 1015.2 |
| 20260506232404 | 70 | 301 | 3.0 | 9.0 | 0.00 | 0.00 | 0.00 | 43 | 1015.3 |
| 20260506232204 | 70 | 305 | 3.0 | 8.0 | 0.00 | 0.00 | 0.00 | 42 | 1015.3 |
| 20260506232004 | 71 | 299 | 3.0 | 8.0 | 0.00 | 0.00 | 0.00 | 43 | 1015.2 |
| 20260506231804 | 71 | 298 | 3.0 | 8.0 | 0.00 | 0.00 | 0.00 | 44 | 1015.2 |
| 20260506231604 | 70 | 298 | 3.0 | 8.0 | 0.00 | 0.00 | 0.00 | 44 | 1015.3 |
| 20260506231404 | 70 | 296 | 3.0 | 8.0 | 0.00 | 0.00 | 0.00 | 44 | 1015.2 |
| 20260506231204 | 70 | 291 | 2.0 | 7.0 | 0.00 | 0.00 | 0.00 | 44 | 1015.3 |
| 20260506231004 | 70 | 276 | 2.0 | 7.0 | 0.00 | 0.00 | 0.00 | 43 | 1015.3 |
| 20260506230804 | 70 | 274 | 2.0 | 7.0 | 0.00 | 0.00 | 0.00 | 43 | 1015.4 |
| 20260506230604 | 70 | 259 | 2.0 | 7.0 | 0.00 | 0.00 | 0.00 | 44 | 1015.4 |
| 20260506230425 | 70 | 257 | 2.0 | 7.0 | 0.00 | 0.00 | 0.00 | 44 | 1015.3 |
| 20260506230204 | 70 | 272 | 2.0 | 7.0 | 0.00 | 0.00 | 0.00 | 43 | 1015.4 |
| 20260506230004 | 70 | 275 | 3.0 | 9.0 | 0.00 | 0.00 | 0.00 | 44 | 1015.4 |
| 20260506225804 | 70 | 281 | 3.0 | 9.0 | 0.00 | 0.00 | 0.00 | 43 | 1015.4 |
| 20260506225604 | 70 | 289 | 3.0 | 9.0 | 0.00 | 0.00 | 0.00 | 44 | 1015.5 |
| 20260506225404 | 70 | 287 | 3.0 | 9.0 | 0.00 | 0.00 | 0.00 | 44 | 1015.5 |
| 20260506225204 | 70 | 285 | 3.0 | 9.0 | 0.00 | 0.00 | 0.00 | 43 | 1015.5 |
| 20260506225004 | 70 | 294 | 3.0 | 7.0 | 0.00 | 0.00 | 0.00 | 44 | 1015.5 |
| 20260506224804 | 70 | 290 | 3.0 | 7.0 | 0.00 | 0.00 | 0.00 | 44 | 1015.5 |
| 20260506224604 | 70 | 293 | 3.0 | 7.0 | 0.00 | 0.00 | 0.00 | 43 | 1015.6 |
| 20260506224404 | 70 | 293 | 2.0 | 7.0 | 0.00 | 0.00 | 0.00 | 43 | 1015.5 |
| 20260506224204 | 71 | 293 | 2.0 | 7.0 | 0.00 | 0.00 | 0.00 | 43 | 1015.6 |
| 20260506224025 | 71 | 294 | 2.0 | 5.0 | 0.00 | 0.00 | 0.00 | 44 | 1015.5 |
| 20260506223804 | 70 | 293 | 2.0 | 5.0 | 0.00 | 0.00 | 0.00 | 45 | 1015.5 |
| 20260506223605 | 70 | 291 | 2.0 | 6.0 | 0.00 | 0.00 | 0.00 | 43 | 1015.5 |
| 20260506223404 | 70 | 290 | 2.0 | 6.0 | 0.00 | 0.00 | 0.00 | 44 | 1015.6 |
| 20260506223204 | 70 | 285 | 2.0 | 6.0 | 0.00 | 0.00 | 0.00 | 44 | 1015.6 |
| 20260506223025 | 70 | 285 | 2.0 | 6.0 | 0.00 | 0.00 | 0.00 | 43 | 1015.6 |
| 20260506222804 | 70 | 291 | 2.0 | 6.0 | 0.00 | 0.00 | 0.00 | 44 | 1015.7 |
| 20260506222604 | 70 | 300 | 2.0 | 6.0 | 0.00 | 0.00 | 0.00 | 44 | 1015.8 |
| 20260506222404 | 70 | 310 | 2.0 | 6.0 | 0.00 | 0.00 | 0.00 | 44 | 1015.8 |
| 20260506222204 | 69 | 311 | 2.0 | 6.0 | 0.00 | 0.00 | 0.00 | 46 | 1015.8 |
| 20260506222004 | 69 | 314 | 2.0 | 5.0 | 0.00 | 0.00 | 0.00 | 45 | 1015.8 |
| 20260506221804 | 69 | 312 | 2.0 | 5.0 | 0.00 | 0.00 | 0.00 | 44 | 1015.9 |
| 20260506221604 | 69 | 285 | 2.0 | 5.0 | 0.00 | 0.00 | 0.00 | 45 | 1015.9 |
| 20260506221404 | 69 | 274 | 2.0 | 5.0 | 0.00 | 0.00 | 0.00 | 45 | 1015.9 |
| 20260506221204 | 69 | 272 | 2.0 | 6.0 | 0.00 | 0.00 | 0.00 | 44 | 1015.9 |
| 20260506221004 | 69 | 266 | 2.0 | 6.0 | 0.00 | 0.00 | 0.00 | 44 | 1016.0 |
| 20260506220825 | 69 | 275 | 2.0 | 6.0 | 0.00 | 0.00 | 0.00 | 45 | 1016.0 |
| 20260506220604 | 69 | 286 | 2.0 | 7.0 | 0.00 | 0.00 | 0.00 | 46 | 1016.0 |
| 20260506220425 | 69 | 285 | 2.0 | 7.0 | 0.00 | 0.00 | 0.00 | 46 | 1016.0 |
| 20260506220204 | 69 | 282 | 2.0 | 7.0 | 0.00 | 0.00 | 0.00 | 46 | 1016.0 |
| 20260506220004 | 69 | 284 | 2.0 | 7.0 | 0.00 | 0.00 | 0.00 | 45 | 1016.0 |
| 20260506215804 | 69 | 286 | 2.0 | 8.0 | 0.00 | 0.00 | 0.00 | 47 | 1016.1 |
| 20260506215604 | 69 | 289 | 2.0 | 8.0 | 0.00 | 0.00 | 0.00 | 48 | 1016.0 |
| 20260506215404 | 68 | 291 | 2.0 | 8.0 | 0.00 | 0.00 | 0.00 | 46 | 1016.1 |
| 20260506215204 | 68 | 286 | 3.0 | 8.0 | 0.00 | 0.00 | 0.00 | 47 | 1016.1 |
| 20260506215004 | 69 | 280 | 2.0 | 8.0 | 0.00 | 0.00 | 0.00 | 47 | 1016.1 |
| 20260506214804 | 69 | 277 | 2.0 | 7.0 | 0.00 | 0.00 | 0.00 | 46 | 1016.1 |
| 20260506214604 | 69 | 270 | 2.0 | 7.0 | 0.00 | 0.00 | 0.00 | 46 | 1016.2 |
| 20260506214404 | 69 | 259 | 3.0 | 8.0 | 0.00 | 0.00 | 0.00 | 46 | 1016.2 |
| 20260506214204 | 69 | 261 | 2.0 | 8.0 | 0.00 | 0.00 | 0.00 | 47 | 1016.2 |
| 20260506214004 | 69 | 261 | 2.0 | 8.0 | 0.00 | 0.00 | 0.00 | 47 | 1016.2 |
| 20260506213804 | 69 | 240 | 2.0 | 8.0 | 0.00 | 0.00 | 0.00 | 46 | 1016.2 |
| 20260506213625 | 69 | 231 | 2.0 | 8.0 | 0.00 | 0.00 | 0.00 | 46 | 1016.2 |
| 20260506213404 | 68 | 242 | 2.0 | 7.0 | 0.00 | 0.00 | 0.00 | 49 | 1016.3 |
| 20260506213204 | 68 | 256 | 2.0 | 7.0 | 0.00 | 0.00 | 0.00 | 46 | 1016.3 |
| 20260506213004 | 68 | 264 | 3.0 | 7.0 | 0.00 | 0.00 | 0.00 | 46 | 1016.4 |
| 20260506212825 | 68 | 271 | 3.0 | 7.0 | 0.00 | 0.00 | 0.00 | 47 | 1016.4 |
| 20260506212604 | 68 | 283 | 2.0 | 7.0 | 0.00 | 0.00 | 0.00 | 47 | 1016.5 |
| 20260506212404 | 68 | 291 | 2.0 | 7.0 | 0.00 | 0.00 | 0.00 | 48 | 1016.5 |
| 20260506212204 | 68 | 289 | 2.0 | 7.0 | 0.00 | 0.00 | 0.00 | 47 | 1016.5 |
| 20260506212025 | 68 | 293 | 2.0 | 7.0 | 0.00 | 0.00 | 0.00 | 47 | 1016.5 |
| 20260506211804 | 68 | 294 | 3.0 | 7.0 | 0.00 | 0.00 | 0.00 | 49 | 1016.5 |
| 20260506211604 | 68 | 295 | 3.0 | 7.0 | 0.00 | 0.00 | 0.00 | 48 | 1016.5 |
| 20260506211425 | 68 | 295 | 3.0 | 7.0 | 0.00 | 0.00 | 0.00 | 48 | 1016.5 |
| 20260506211204 | 68 | 293 | 3.0 | 6.0 | 0.00 | 0.00 | 0.00 | 48 | 1016.6 |
| 20260506211004 | 68 | 293 | 3.0 | 8.0 | 0.00 | 0.00 | 0.00 | 49 | 1016.5 |
| 20260506210804 | 68 | 297 | 3.0 | 8.0 | 0.00 | 0.00 | 0.00 | 49 | 1016.5 |
| 20260506210604 | 68 | 294 | 3.0 | 8.0 | 0.00 | 0.00 | 0.00 | 47 | 1016.5 |
| 20260506210404 | 68 | 291 | 3.0 | 8.0 | 0.00 | 0.00 | 0.00 | 49 | 1016.6 |
| 20260506210204 | 68 | 289 | 3.0 | 8.0 | 0.00 | 0.00 | 0.00 | 48 | 1016.6 |
| 20260506210004 | 68 | 288 | 2.0 | 7.0 | 0.00 | 0.00 | 0.00 | 48 | 1016.6 |
| 20260506205804 | 68 | 284 | 2.0 | 7.0 | 0.00 | 0.00 | 0.00 | 50 | 1016.7 |
| 20260506205604 | 68 | 284 | 2.0 | 7.0 | 0.00 | 0.00 | 0.00 | 47 | 1016.7 |
| 20260506205425 | 68 | 280 | 2.0 | 7.0 | 0.00 | 0.00 | 0.00 | 47 | 1016.6 |
| 20260506205204 | 68 | 277 | 2.0 | 7.0 | 0.00 | 0.00 | 0.00 | 46 | 1016.7 |
| 20260506205025 | 68 | 261 | 2.0 | 6.0 | 0.00 | 0.00 | 0.00 | 46 | 1016.7 |
| 20260506204804 | 68 | 206 | 2.0 | 6.0 | 0.00 | 0.00 | 0.00 | 48 | 1016.7 |
| 20260506204604 | 68 | 182 | 2.0 | 6.0 | 0.00 | 0.00 | 0.00 | 48 | 1016.7 |
| 20260506204404 | 68 | 209 | 2.0 | 6.0 | 0.00 | 0.00 | 0.00 | 49 | 1016.7 |
| 20260506204204 | 68 | 241 | 3.0 | 7.0 | 0.00 | 0.00 | 0.00 | 48 | 1016.6 |
| 20260506204025 | 68 | 267 | 3.0 | 7.0 | 0.00 | 0.00 | 0.00 | 46 | 1016.7 |
| 20260506203804 | 67 | 285 | 3.0 | 7.0 | 0.00 | 0.00 | 0.00 | 48 | 1016.7 |
| 20260506203604 | 68 | 289 | 2.0 | 7.0 | 0.00 | 0.00 | 0.00 | 48 | 1016.7 |
| 20260506203404 | 68 | 285 | 2.0 | 7.0 | 0.00 | 0.00 | 0.00 | 47 | 1016.7 |
| 20260506203204 | 68 | 282 | 1.0 | 6.0 | 0.00 | 0.00 | 0.00 | 48 | 1016.7 |
| 20260506203004 | 68 | 257 | 1.0 | 5.0 | 0.00 | 0.00 | 0.00 | 47 | 1016.7 |
| 20260506202804 | 67 | 239 | 1.0 | 4.0 | 0.00 | 0.00 | 0.00 | 48 | 1016.8 |
| 20260506202604 | 67 | 252 | 1.0 | 4.0 | 0.00 | 0.00 | 0.00 | 48 | 1016.9 |
| 20260506202425 | 67 | 256 | 1.0 | 4.0 | 0.00 | 0.00 | 0.00 | 47 | 1016.9 |
| 20260506202204 | 67 | 246 | 1.0 | 4.0 | 0.00 | 0.00 | 0.00 | 48 | 1016.9 |
| 20260506202004 | 67 | 257 | 1.0 | 4.0 | 0.00 | 0.00 | 0.00 | 47 | 1016.9 |
| 20260506201804 | 67 | 282 | 1.0 | 5.0 | 0.00 | 0.00 | 0.00 | 49 | 1017.0 |
| 20260506201604 | 66 | 292 | 1.0 | 5.0 | 0.00 | 0.00 | 0.00 | 50 | 1017.0 |
| 20260506201404 | 66 | 280 | 2.0 | 5.0 | 0.00 | 0.00 | 0.00 | 49 | 1017.0 |
| 20260506201204 | 66 | 274 | 2.0 | 5.0 | 0.00 | 0.00 | 0.00 | 49 | 1017.0 |
| 20260506201004 | 66 | 265 | 2.0 | 5.0 | 0.00 | 0.00 | 0.00 | 49 | 1017.0 |
| 20260506200804 | 66 | 252 | 2.0 | 5.0 | 0.00 | 0.00 | 0.00 | 51 | 1017.1 |
| 20260506200604 | 66 | 269 | 2.0 | 6.0 | 0.00 | 0.00 | 0.00 | 50 | 1017.1 |
| 20260506200404 | 66 | 286 | 2.0 | 7.0 | 0.00 | 0.00 | 0.00 | 50 | 1017.1 |
| 20260506200204 | 65 | 303 | 2.0 | 7.0 | 0.00 | 0.00 | 0.00 | 50 | 1017.3 |
| 20260506200004 | 65 | 309 | 2.0 | 7.0 | 0.00 | 0.00 | 0.00 | 51 | 1017.3 |
| 20260506195804 | 65 | 306 | 3.0 | 7.0 | 0.00 | 0.00 | 0.00 | 51 | 1017.2 |
| 20260506195604 | 65 | 300 | 3.0 | 7.0 | 0.00 | 0.00 | 0.00 | 52 | 1017.3 |
| 20260506195404 | 65 | 291 | 2.0 | 7.0 | 0.00 | 0.00 | 0.00 | 51 | 1017.3 |
| 20260506195204 | 65 | 270 | 2.0 | 7.0 | 0.00 | 0.00 | 0.00 | 50 | 1017.3 |
| 20260506195004 | 65 | 247 | 2.0 | 7.0 | 0.00 | 0.00 | 0.00 | 50 | 1017.3 |
| 20260506194804 | 65 | 249 | 2.0 | 6.0 | 0.00 | 0.00 | 0.00 | 52 | 1017.3 |
| 20260506194604 | 65 | 258 | 2.0 | 6.0 | 0.00 | 0.00 | 0.00 | 50 | 1017.4 |
| 20260506194425 | 65 | 270 | 2.0 | 6.0 | 0.00 | 0.00 | 0.00 | 52 | 1017.4 |
| 20260506194204 | 64 | 281 | 2.0 | 6.0 | 0.00 | 0.00 | 0.00 | 53 | 1017.4 |
| 20260506194004 | 64 | 283 | 2.0 | 6.0 | 0.00 | 0.00 | 0.00 | 52 | 1017.4 |
| 20260506193804 | 64 | 278 | 2.0 | 6.0 | 0.00 | 0.00 | 0.00 | 53 | 1017.4 |
| 20260506193604 | 64 | 274 | 2.0 | 6.0 | 0.00 | 0.00 | 0.00 | 53 | 1017.4 |
| 20260506193404 | 64 | 280 | 2.0 | 6.0 | 0.00 | 0.00 | 0.00 | 52 | 1017.4 |
| 20260506193225 | 64 | 281 | 2.0 | 6.0 | 0.00 | 0.00 | 0.00 | 53 | 1017.4 |
| 20260506193004 | 64 | 281 | 2.0 | 6.0 | 0.00 | 0.00 | 0.00 | 53 | 1017.4 |
| 20260506192804 | 63 | 283 | 2.0 | 6.0 | 0.00 | 0.00 | 0.00 | 52 | 1017.4 |
| 20260506192625 | 63 | 286 | 2.0 | 6.0 | 0.00 | 0.00 | 0.00 | 54 | 1017.4 |
| 20260506192404 | 63 | 291 | 2.0 | 5.0 | 0.00 | 0.00 | 0.00 | 53 | 1017.5 |
| 20260506192204 | 63 | 288 | 2.0 | 5.0 | 0.00 | 0.00 | 0.00 | 53 | 1017.5 |
| 20260506192004 | 63 | 286 | 2.0 | 5.0 | 0.00 | 0.00 | 0.00 | 53 | 1017.6 |
| 20260506191804 | 63 | 273 | 2.0 | 5.0 | 0.00 | 0.00 | 0.00 | 53 | 1017.6 |
| 20260506191604 | 63 | 262 | 1.0 | 5.0 | 0.00 | 0.00 | 0.00 | 54 | 1017.6 |
| 20260506191404 | 63 | 252 | 1.0 | 5.0 | 0.00 | 0.00 | 0.00 | 54 | 1017.6 |
| 20260506191204 | 62 | 237 | 1.0 | 6.0 | 0.00 | 0.00 | 0.00 | 54 | 1017.6 |
| 20260506191004 | 62 | 256 | 2.0 | 6.0 | 0.00 | 0.00 | 0.00 | 54 | 1017.7 |
| 20260506190804 | 62 | 271 | 2.0 | 6.0 | 0.00 | 0.00 | 0.00 | 55 | 1017.7 |
| 20260506190604 | 62 | 273 | 2.0 | 6.0 | 0.00 | 0.00 | 0.00 | 55 | 1017.8 |
| 20260506190404 | 62 | 278 | 2.0 | 6.0 | 0.00 | 0.00 | 0.00 | 55 | 1017.7 |
| 20260506190204 | 62 | 287 | 3.0 | 7.0 | 0.00 | 0.00 | 0.00 | 55 | 1017.7 |
| 20260506190004 | 61 | 292 | 3.0 | 7.0 | 0.00 | 0.00 | 0.00 | 56 | 1017.7 |
| 20260506185804 | 62 | 296 | 2.0 | 7.0 | 0.00 | 0.00 | 0.00 | 56 | 1017.8 |
| 20260506185604 | 62 | 298 | 2.0 | 7.0 | 0.00 | 0.00 | 0.00 | 56 | 1017.8 |
| 20260506185404 | 61 | 296 | 2.0 | 7.0 | 0.00 | 0.00 | 0.00 | 57 | 1017.8 |
| 20260506185204 | 61 | 293 | 2.0 | 7.0 | 0.00 | 0.00 | 0.00 | 58 | 1017.8 |
| 20260506185025 | 61 | 288 | 1.0 | 6.0 | 0.00 | 0.00 | 0.00 | 56 | 1017.8 |
| 20260506184804 | 61 | 282 | 1.0 | 6.0 | 0.00 | 0.00 | 0.00 | 57 | 1017.9 |
| 20260506184625 | 61 | 282 | 1.0 | 7.0 | 0.00 | 0.00 | 0.00 | 58 | 1018.0 |
| 20260506184404 | 61 | 285 | 2.0 | 7.0 | 0.00 | 0.00 | 0.00 | 57 | 1017.9 |
| 20260506184225 | 61 | 287 | 2.0 | 7.0 | 0.00 | 0.00 | 0.00 | 57 | 1017.9 |
| 20260506184025 | 60 | 288 | 2.0 | 7.0 | 0.00 | 0.00 | 0.00 | 57 | 1018.0 |
| 20260506183804 | 60 | 286 | 3.0 | 7.0 | 0.00 | 0.00 | 0.00 | 57 | 1018.0 |
| 20260506183604 | 60 | 287 | 3.0 | 7.0 | 0.00 | 0.00 | 0.00 | 58 | 1017.9 |
| 20260506183404 | 60 | 289 | 2.0 | 6.0 | 0.00 | 0.00 | 0.00 | 59 | 1017.9 |
| 20260506183204 | 60 | 289 | 3.0 | 6.0 | 0.00 | 0.00 | 0.00 | 59 | 1017.9 |
| 20260506183005 | 60 | 291 | 2.0 | 6.0 | 0.00 | 0.00 | 0.00 | 59 | 1018.0 |
| 20260506182804 | 60 | 297 | 2.0 | 6.0 | 0.00 | 0.00 | 0.00 | 58 | 1018.0 |
| 20260506182604 | 60 | 303 | 2.0 | 6.0 | 0.00 | 0.00 | 0.00 | 60 | 1018.0 |
| 20260506182425 | 59 | 302 | 3.0 | 6.0 | 0.00 | 0.00 | 0.00 | 59 | 1018.0 |
| 20260506182204 | 59 | 305 | 2.0 | 6.0 | 0.00 | 0.00 | 0.00 | 60 | 1018.1 |
| 20260506182004 | 59 | 302 | 2.0 | 6.0 | 0.00 | 0.00 | 0.00 | 60 | 1018.1 |
| 20260506181804 | 59 | 297 | 2.0 | 6.0 | 0.00 | 0.00 | 0.00 | 59 | 1018.1 |
| 20260506181604 | 59 | 291 | 2.0 | 6.0 | 0.00 | 0.00 | 0.00 | 59 | 1018.2 |
| 20260506181404 | 59 | 296 | 2.0 | 6.0 | 0.00 | 0.00 | 0.00 | 60 | 1018.2 |
| 20260506181204 | 59 | 290 | 1.0 | 6.0 | 0.00 | 0.00 | 0.00 | 60 | 1018.2 |
| 20260506181004 | 59 | 289 | 2.0 | 6.0 | 0.00 | 0.00 | 0.00 | 60 | 1018.2 |
| 20260506180825 | 59 | 291 | 1.0 | 6.0 | 0.00 | 0.00 | 0.00 | 60 | 1018.2 |
| 20260506180604 | 59 | 291 | 1.0 | 6.0 | 0.00 | 0.00 | 0.00 | 60 | 1018.2 |
| 20260506180425 | 59 | 276 | 1.0 | 6.0 | 0.00 | 0.00 | 0.00 | 61 | 1018.2 |
| 20260506180204 | 59 | 270 | 1.0 | 6.0 | 0.00 | 0.00 | 0.00 | 60 | 1018.2 |
| 20260506180005 | 59 | 266 | 1.0 | 5.0 | 0.00 | 0.00 | 0.00 | 61 | 1018.2 |
| 20260506175804 | 58 | 282 | 1.0 | 7.0 | 0.00 | 0.00 | 0.00 | 63 | 1018.2 |
| 20260506175604 | 58 | 284 | 2.0 | 7.0 | 0.00 | 0.00 | 0.00 | 63 | 1018.1 |
| 20260506175404 | 58 | 283 | 2.0 | 7.0 | 0.00 | 0.00 | 0.00 | 61 | 1018.2 |
| 20260506175204 | 58 | 288 | 2.0 | 7.0 | 0.00 | 0.00 | 0.00 | 63 | 1018.2 |
| 20260506175004 | 58 | 294 | 2.0 | 7.0 | 0.00 | 0.00 | 0.00 | 63 | 1018.2 |
| 20260506174804 | 58 | 292 | 2.0 | 6.0 | 0.00 | 0.00 | 0.00 | 63 | 1018.2 |
| 20260506174604 | 58 | 312 | 1.0 | 6.0 | 0.00 | 0.00 | 0.00 | 64 | 1018.1 |
| 20260506174404 | 58 | 344 | 1.0 | 6.0 | 0.00 | 0.00 | 0.00 | 65 | 1018.2 |
| 20260506174204 | 57 | 360 | 1.0 | 4.0 | 0.00 | 0.00 | 0.00 | 63 | 1018.2 |
| 20260506174004 | 57 | 279 | 1.0 | 4.0 | 0.00 | 0.00 | 0.00 | 64 | 1018.1 |
| 20260506173804 | 57 | 127 | 0.0 | 4.0 | 0.00 | 0.00 | 0.00 | 63 | 1018.1 |
| 20260506173604 | 57 | 289 | 1.0 | 4.0 | 0.00 | 0.00 | 0.00 | 64 | 1018.1 |
| 20260506173404 | 57 | 295 | 1.0 | 4.0 | 0.00 | 0.00 | 0.00 | 64 | 1018.1 |
| 20260506173204 | 57 | 294 | 1.0 | 5.0 | 0.00 | 0.00 | 0.00 | 65 | 1018.1 |
| 20260506173025 | 57 | 293 | 1.0 | 5.0 | 0.00 | 0.00 | 0.00 | 64 | 1018.2 |
| 20260506172804 | 57 | 293 | 1.0 | 5.0 | 0.00 | 0.00 | 0.00 | 65 | 1018.1 |
| 20260506172604 | 57 | 280 | 1.0 | 5.0 | 0.00 | 0.00 | 0.00 | 65 | 1018.1 |
| 20260506172404 | 57 | 277 | 1.0 | 5.0 | 0.00 | 0.00 | 0.00 | 64 | 1018.2 |
| 20260506172204 | 57 | 287 | 1.0 | 5.0 | 0.00 | 0.00 | 0.00 | 66 | 1018.2 |
| 20260506172004 | 56 | 285 | 1.0 | 6.0 | 0.00 | 0.00 | 0.00 | 67 | 1018.2 |
| 20260506171804 | 56 | 286 | 1.0 | 6.0 | 0.00 | 0.00 | 0.00 | 66 | 1018.2 |
| 20260506171625 | 56 | 289 | 1.0 | 6.0 | 0.00 | 0.00 | 0.00 | 67 | 1018.2 |
| 20260506171404 | 56 | 286 | 1.0 | 6.0 | 0.00 | 0.00 | 0.00 | 65 | 1018.3 |
| 20260506171204 | 56 | 270 | 0.0 | 6.0 | 0.00 | 0.00 | 0.00 | 66 | 1018.2 |
| 20260506171004 | 56 | 269 | 0.0 | 3.0 | 0.00 | 0.00 | 0.00 | 65 | 1018.2 |
| 20260506170825 | 56 | 234 | 0.0 | 3.0 | 0.00 | 0.00 | 0.00 | 65 | 1018.1 |
| 20260506170625 | 56 | 235 | 0.0 | 3.0 | 0.00 | 0.00 | 0.00 | 65 | 1018.2 |
| 20260506170404 | 56 | 235 | 0.0 | 3.0 | 0.00 | 0.00 | 0.00 | 66 | 1018.2 |
| 20260506170204 | 56 | 239 | 0.0 | 1.0 | 0.00 | 0.00 | 0.00 | 67 | 1018.1 |
| 20260506170004 | 55 | 278 | 0.0 | 4.0 | 0.00 | 0.00 | 0.00 | 68 | 1018.2 |
| 20260506165804 | 55 | 285 | 0.0 | 4.0 | 0.00 | 0.00 | 0.00 | 69 | 1018.1 |
| 20260506165605 | 55 | 286 | 0.0 | 4.0 | 0.00 | 0.00 | 0.00 | 68 | 1018.2 |
| 20260506165404 | 54 | 288 | 0.0 | 4.0 | 0.00 | 0.00 | 0.00 | 68 | 1018.2 |
| 20260506165204 | 54 | 286 | 1.0 | 6.0 | 0.00 | 0.00 | 0.00 | 68 | 1018.2 |
| 20260506165004 | 54 | 289 | 1.0 | 6.0 | 0.00 | 0.00 | 0.00 | 68 | 1018.2 |
| 20260506164804 | 54 | 287 | 1.0 | 6.0 | 0.00 | 0.00 | 0.00 | 68 | 1018.2 |
| 20260506164604 | 54 | 288 | 1.0 | 6.0 | 0.00 | 0.00 | 0.00 | 68 | 1018.2 |
| 20260506164404 | 54 | 287 | 1.0 | 6.0 | 0.00 | 0.00 | 0.00 | 69 | 1018.1 |
| 20260506164204 | 54 | 290 | 0.0 | 4.0 | 0.00 | 0.00 | 0.00 | 69 | 1018.1 |
| 20260506164004 | 54 | 284 | 0.0 | 4.0 | 0.00 | 0.00 | 0.00 | 68 | 1018.2 |
| 20260506163804 | 54 | 294 | 0.0 | 2.0 | 0.00 | 0.00 | 0.00 | 69 | 1018.2 |
| 20260506163604 | 54 | 284 | 0.0 | 4.0 | 0.00 | 0.00 | 0.00 | 69 | 1018.1 |
| 20260506163404 | 54 | 290 | 1.0 | 4.0 | 0.00 | 0.00 | 0.00 | 69 | 1018.2 |
| 20260506163204 | 53 | 289 | 1.0 | 5.0 | 0.00 | 0.00 | 0.00 | 69 | 1018.2 |
| 20260506163004 | 53 | 290 | 1.0 | 5.0 | 0.00 | 0.00 | 0.00 | 69 | 1018.1 |
| 20260506162825 | 53 | 288 | 1.0 | 5.0 | 0.00 | 0.00 | 0.00 | 68 | 1018.1 |
| 20260506162604 | 53 | 291 | 1.0 | 5.0 | 0.00 | 0.00 | 0.00 | 69 | 1018.1 |
| 20260506162404 | 54 | 288 | 1.0 | 5.0 | 0.00 | 0.00 | 0.00 | 68 | 1018.1 |
| 20260506162225 | 54 | 289 | 0.0 | 4.0 | 0.00 | 0.00 | 0.00 | 69 | 1018.1 |
| 20260506162004 | 54 | 281 | 0.0 | 4.0 | 0.00 | 0.00 | 0.00 | 68 | 1018.0 |
| 20260506161804 | 54 | 297 | 0.0 | 4.0 | 0.00 | 0.00 | 0.00 | 68 | 1018.1 |
| 20260506161604 | 54 | 329 | 0.0 | 1.0 | 0.00 | 0.00 | 0.00 | 68 | 1018.0 |
| 20260506161404 | 53 | 329 | 0.0 | 1.0 | 0.00 | 0.00 | 0.00 | 69 | 1017.9 |
| 20260506161204 | 53 | 305 | 0.0 | 1.0 | 0.00 | 0.00 | 0.00 | 69 | 1017.8 |
| 20260506161004 | 53 | 293 | 0.0 | 1.0 | 0.00 | 0.00 | 0.00 | 70 | 1017.8 |
| 20260506160825 | 53 | 293 | 0.0 | 1.0 | 0.00 | 0.00 | 0.00 | 68 | 1017.9 |
| 20260506160604 | 53 | 293 | 0.0 | 1.0 | 0.00 | 0.00 | 0.00 | 70 | 1017.8 |
| 20260506160404 | 52 | 323 | 0.0 | 1.0 | 0.00 | 0.00 | 0.00 | 69 | 1017.9 |
| 20260506160225 | 52 | 343 | 0.0 | 1.0 | 0.00 | 0.00 | 0.00 | 69 | 1017.8 |
| 20260506160004 | 52 | 9 | 0.0 | 1.0 | 0.00 | 0.00 | 0.00 | 68 | 1017.8 |
| 20260506155804 | 52 | 9 | 0.0 | 1.0 | 0.00 | 0.00 | 0.00 | 69 | 1017.8 |
| 20260506155604 | 52 | 9 | 0.0 | 1.0 | 0.00 | 0.00 | 0.00 | 68 | 1017.7 |
| 20260506155404 | 52 | 352 | 0.0 | 1.0 | 0.00 | 0.00 | 0.00 | 68 | 1017.7 |
| 20260506155204 | 52 | 0 | 0.0 | 0.0 | 0.00 | 0.00 | 0.00 | 68 | 1017.7 |
| 20260506155004 | 52 | 0 | 0.0 | 0.0 | 0.00 | 0.00 | 0.00 | 68 | 1017.7 |
| 20260506154804 | 52 | 327 | 0.0 | 1.0 | 0.00 | 0.00 | 0.00 | 69 | 1017.7 |
| 20260506154625 | 52 | 327 | 0.0 | 1.0 | 0.00 | 0.00 | 0.00 | 68 | 1017.7 |
| 20260506154404 | 52 | 327 | 0.0 | 1.0 | 0.00 | 0.00 | 0.00 | 67 | 1017.7 |
| 20260506154204 | 52 | 327 | 0.0 | 1.0 | 0.00 | 0.00 | 0.00 | 68 | 1017.7 |
| 20260506154025 | 52 | 327 | 0.0 | 1.0 | 0.00 | 0.00 | 0.00 | 67 | 1017.7 |
| 20260506153825 | 52 | 0 | 0.0 | 0.0 | 0.00 | 0.00 | 0.00 | 68 | 1017.7 |
| 20260506153604 | 52 | 0 | 0.0 | 0.0 | 0.00 | 0.00 | 0.00 | 69 | 1017.7 |
| 20260506153425 | 51 | 0 | 0.0 | 0.0 | 0.00 | 0.00 | 0.00 | 70 | 1017.7 |
| 20260506153204 | 51 | 0 | 0.0 | 0.0 | 0.00 | 0.00 | 0.00 | 69 | 1017.8 |
| 20260506153004 | 51 | 0 | 0.0 | 0.0 | 0.00 | 0.00 | 0.00 | 69 | 1017.7 |
| 20260506152804 | 50 | 0 | 0.0 | 0.0 | 0.00 | 0.00 | 0.00 | 69 | 1017.7 |
| 20260506152604 | 50 | 0 | 0.0 | 0.0 | 0.00 | 0.00 | 0.00 | 69 | 1017.7 |
| 20260506152404 | 50 | 0 | 0.0 | 0.0 | 0.00 | 0.00 | 0.00 | 70 | 1017.7 |
| 20260506152225 | 50 | 0 | 0.0 | 0.0 | 0.00 | 0.00 | 0.00 | 70 | 1017.7 |
| 20260506152004 | 50 | 0 | 0.0 | 0.0 | 0.00 | 0.00 | 0.00 | 73 | 1017.7 |
| 20260506151804 | 50 | 0 | 0.0 | 0.0 | 0.00 | 0.00 | 0.00 | 73 | 1017.7 |
| 20260506151604 | 50 | 0 | 0.0 | 0.0 | 0.00 | 0.00 | 0.00 | 72 | 1017.7 |
| 20260506151404 | 50 | 0 | 0.0 | 0.0 | 0.00 | 0.00 | 0.00 | 73 | 1017.7 |
| 20260506151204 | 50 | 0 | 0.0 | 0.0 | 0.00 | 0.00 | 0.00 | 72 | 1017.7 |
| 20260506151004 | 50 | 0 | 0.0 | 0.0 | 0.00 | 0.00 | 0.00 | 73 | 1017.7 |
| 20260506150804 | 50 | 0 | 0.0 | 0.0 | 0.00 | 0.00 | 0.00 | 73 | 1017.7 |
| 20260506150604 | 50 | 0 | 0.0 | 0.0 | 0.00 | 0.00 | 0.00 | 73 | 1017.7 |
| 20260506150404 | 50 | 0 | 0.0 | 0.0 | 0.00 | 0.00 | 0.00 | 73 | 1017.7 |
| 20260506150225 | 50 | 0 | 0.0 | 0.0 | 0.00 | 0.00 | 0.00 | 71 | 1017.7 |
| 20260506150004 | 50 | 0 | 0.0 | 0.0 | 0.00 | 0.00 | 0.00 | 71 | 1017.7 |
| 20260506145804 | 50 | 0 | 0.0 | 0.0 | 0.00 | 0.00 | 0.00 | 73 | 1017.7 |
| 20260506145604 | 50 | 0 | 0.0 | 0.0 | 0.00 | 0.00 | 0.00 | 74 | 1017.7 |
| 20260506145404 | 50 | 0 | 0.0 | 0.0 | 0.00 | 0.00 | 0.00 | 74 | 1017.7 |
| 20260506145225 | 50 | 0 | 0.0 | 0.0 | 0.00 | 0.00 | 0.00 | 76 | 1017.7 |
| 20260506145004 | 50 | 0 | 0.0 | 0.0 | 0.00 | 0.00 | 0.00 | 75 | 1017.7 |
| 20260506144804 | 50 | 0 | 0.0 | 0.0 | 0.00 | 0.00 | 0.00 | 75 | 1017.7 |
| 20260506144604 | 50 | 0 | 0.0 | 0.0 | 0.00 | 0.01 | 0.00 | 75 | 1017.7 |
| 20260506144404 | 50 | 0 | 0.0 | 0.0 | 0.00 | 0.01 | 0.00 | 76 | 1017.7 |
| 20260506144204 | 50 | 0 | 0.0 | 0.0 | 0.00 | 0.02 | 0.00 | 77 | 1017.7 |
| 20260506144004 | 50 | 0 | 0.0 | 0.0 | 0.00 | 0.02 | 0.00 | 77 | 1017.8 |
| 20260506143804 | 49 | 0 | 0.0 | 0.0 | 0.00 | 0.02 | 0.00 | 78 | 1017.9 |
| 20260506143604 | 49 | 0 | 0.0 | 0.0 | 0.00 | 0.02 | 0.00 | 80 | 1017.7 |
| 20260506143404 | 48 | 0 | 0.0 | 0.0 | 0.00 | 0.03 | 0.00 | 83 | 1017.7 |
| 20260506143204 | 48 | 0 | 0.0 | 0.0 | 0.00 | 0.03 | 0.00 | 83 | 1017.6 |
| 20260506143004 | 47 | 0 | 0.0 | 0.0 | 0.00 | 0.03 | 0.00 | 84 | 1017.6 |
| 20260506142804 | 47 | 0 | 0.0 | 0.0 | 0.00 | 0.04 | 0.00 | 85 | 1017.6 |
| 20260506142625 | 46 | 0 | 0.0 | 0.0 | 0.00 | 0.04 | 0.00 | 86 | 1017.6 |
| 20260506142404 | 46 | 0 | 0.0 | 0.0 | 0.00 | 0.05 | 0.00 | 87 | 1017.7 |
| 20260506142204 | 45 | 0 | 0.0 | 0.0 | 0.00 | 0.05 | 0.00 | 87 | 1017.7 |
| 20260506142004 | 45 | 0 | 0.0 | 0.0 | 0.00 | 0.06 | 0.00 | 88 | 1017.7 |
| 20260506141804 | 44 | 0 | 0.0 | 0.0 | 0.00 | 0.06 | 0.00 | 88 | 1017.6 |
| 20260506141604 | 44 | 0 | 0.0 | 0.0 | 0.00 | 0.06 | 0.00 | 89 | 1017.6 |
| 20260506141404 | 44 | 0 | 0.0 | 0.0 | 0.00 | 0.06 | 0.00 | 89 | 1017.6 |
| 20260506141204 | 44 | 0 | 0.0 | 0.0 | 0.00 | 0.06 | 0.00 | 89 | 1017.6 |
| 20260506141004 | 44 | 0 | 0.0 | 0.0 | 0.00 | 0.06 | 0.00 | 89 | 1017.6 |
| 20260506140804 | 44 | 0 | 0.0 | 0.0 | 0.00 | 0.06 | 0.00 | 89 | 1017.6 |
| 20260506140625 | 44 | 0 | 0.0 | 0.0 | 0.00 | 0.06 | 0.00 | 89 | 1017.6 |
| 20260506140404 | 44 | 0 | 0.0 | 0.0 | 0.00 | 0.06 | 0.00 | 89 | 1017.6 |
| 20260506140204 | 44 | 0 | 0.0 | 0.0 | 0.00 | 0.06 | 0.00 | 89 | 1017.5 |
| 20260506140025 | 44 | 0 | 0.0 | 0.0 | 0.00 | 0.06 | 0.00 | 90 | 1017.5 |
| 20260506135804 | 44 | 0 | 0.0 | 0.0 | 0.00 | 0.06 | 0.00 | 90 | 1017.5 |
| 20260506135625 | 44 | 0 | 0.0 | 0.0 | 0.00 | 0.06 | 0.00 | 90 | 1017.5 |
| 20260506135404 | 43 | 0 | 0.0 | 0.0 | 0.00 | 0.06 | 0.00 | 90 | 1017.5 |
| 20260506135225 | 43 | 0 | 0.0 | 0.0 | 0.00 | 0.06 | 0.00 | 91 | 1017.4 |
| 20260506135004 | 43 | 0 | 0.0 | 0.0 | 0.00 | 0.06 | 0.00 | 91 | 1017.3 |
| 20260506134804 | 43 | 0 | 0.0 | 0.0 | 0.00 | 0.06 | 0.00 | 90 | 1017.3 |
| 20260506134604 | 43 | 0 | 0.0 | 0.0 | 0.00 | 0.06 | 0.00 | 90 | 1017.3 |
| 20260506134404 | 43 | 0 | 0.0 | 0.0 | 0.00 | 0.06 | 0.00 | 90 | 1017.3 |
| 20260506134204 | 43 | 0 | 0.0 | 0.0 | 0.00 | 0.06 | 0.00 | 90 | 1017.3 |
| 20260506134004 | 43 | 0 | 0.0 | 0.0 | 0.00 | 0.06 | 0.00 | 90 | 1017.2 |
| 20260506133804 | 43 | 0 | 0.0 | 0.0 | 0.00 | 0.06 | 0.00 | 90 | 1017.2 |
| 20260506133604 | 43 | 0 | 0.0 | 0.0 | 0.00 | 0.06 | 0.00 | 90 | 1017.2 |
| 20260506133404 | 43 | 0 | 0.0 | 0.0 | 0.00 | 0.06 | 0.00 | 90 | 1017.2 |
| 20260506133204 | 43 | 0 | 0.0 | 0.0 | 0.00 | 0.06 | 0.00 | 90 | 1017.2 |
| 20260506133004 | 43 | 0 | 0.0 | 0.0 | 0.00 | 0.06 | 0.00 | 90 | 1017.2 |
| 20260506132804 | 43 | 0 | 0.0 | 0.0 | 0.00 | 0.06 | 0.00 | 90 | 1017.1 |
| 20260506132625 | 43 | 0 | 0.0 | 0.0 | 0.00 | 0.06 | 0.00 | 90 | 1017.0 |
| 20260506132404 | 43 | 0 | 0.0 | 0.0 | 0.00 | 0.06 | 0.00 | 90 | 1017.0 |
| 20260506132225 | 43 | 0 | 0.0 | 0.0 | 0.00 | 0.06 | 0.00 | 90 | 1017.0 |
| 20260506132004 | 43 | 0 | 0.0 | 0.0 | 0.00 | 0.06 | 0.00 | 90 | 1017.0 |
| 20260506131804 | 43 | 0 | 0.0 | 0.0 | 0.00 | 0.06 | 0.00 | 90 | 1017.0 |
| 20260506131604 | 43 | 0 | 0.0 | 0.0 | 0.00 | 0.06 | 0.00 | 90 | 1017.0 |
| 20260506131404 | 43 | 0 | 0.0 | 0.0 | 0.00 | 0.06 | 0.00 | 90 | 1017.0 |
| 20260506131204 | 43 | 0 | 0.0 | 0.0 | 0.00 | 0.06 | 0.00 | 90 | 1017.0 |
| 20260506131004 | 43 | 0 | 0.0 | 0.0 | 0.00 | 0.06 | 0.00 | 90 | 1017.0 |
| 20260506130804 | 43 | 0 | 0.0 | 0.0 | 0.00 | 0.06 | 0.00 | 90 | 1017.0 |
| 20260506130604 | 43 | 0 | 0.0 | 0.0 | 0.00 | 0.06 | 0.00 | 90 | 1017.0 |
| 20260506130404 | 43 | 0 | 0.0 | 0.0 | 0.00 | 0.06 | 0.00 | 90 | 1017.0 |
| 20260506130204 | 43 | 0 | 0.0 | 0.0 | 0.00 | 0.06 | 0.00 | 90 | 1016.9 |
| 20260506130004 | 43 | 0 | 0.0 | 0.0 | 0.00 | 0.06 | 0.00 | 90 | 1016.9 |
| 20260506125825 | 43 | 0 | 0.0 | 0.0 | 0.00 | 0.06 | 0.00 | 90 | 1016.8 |
| 20260506125625 | 43 | 0 | 0.0 | 0.0 | 0.00 | 0.06 | 0.00 | 90 | 1016.8 |
| 20260506125404 | 43 | 0 | 0.0 | 0.0 | 0.00 | 0.06 | 0.00 | 91 | 1016.8 |
| 20260506125204 | 43 | 0 | 0.0 | 0.0 | 0.00 | 0.06 | 0.00 | 91 | 1016.7 |
| 20260506125004 | 43 | 0 | 0.0 | 0.0 | 0.00 | 0.06 | 0.00 | 91 | 1016.7 |
| 20260506124804 | 43 | 0 | 0.0 | 0.0 | 0.00 | 0.06 | 0.00 | 92 | 1016.7 |
| 20260506124604 | 43 | 0 | 0.0 | 0.0 | 0.00 | 0.06 | 0.00 | 91 | 1016.7 |
| 20260506124404 | 43 | 0 | 0.0 | 0.0 | 0.00 | 0.06 | 0.00 | 91 | 1016.7 |
| 20260506124204 | 43 | 0 | 0.0 | 0.0 | 0.00 | 0.06 | 0.00 | 91 | 1016.6 |
| 20260506124025 | 43 | 86 | 0.0 | 2.0 | 0.00 | 0.06 | 0.00 | 91 | 1016.6 |
| 20260506123804 | 43 | 85 | 1.0 | 3.0 | 0.00 | 0.06 | 0.00 | 91 | 1016.6 |
| 20260506123604 | 43 | 85 | 1.0 | 3.0 | 0.00 | 0.06 | 0.00 | 91 | 1016.6 |
| 20260506123404 | 43 | 85 | 1.0 | 3.0 | 0.00 | 0.06 | 0.00 | 91 | 1016.5 |
| 20260506123204 | 43 | 85 | 1.0 | 3.0 | 0.00 | 0.06 | 0.00 | 91 | 1016.6 |
| 20260506123004 | 43 | 85 | 1.0 | 3.0 | 0.00 | 0.06 | 0.00 | 91 | 1016.6 |
| 20260506122804 | 43 | 88 | 0.0 | 2.0 | 0.00 | 0.06 | 0.00 | 91 | 1016.6 |
| 20260506122604 | 43 | 0 | 0.0 | 0.0 | 0.00 | 0.06 | 0.00 | 91 | 1016.6 |
| 20260506122404 | 43 | 0 | 0.0 | 0.0 | 0.00 | 0.06 | 0.00 | 91 | 1016.6 |
| 20260506122204 | 43 | 0 | 0.0 | 0.0 | 0.00 | 0.06 | 0.00 | 91 | 1016.7 |
| 20260506122004 | 43 | 0 | 0.0 | 0.0 | 0.00 | 0.06 | 0.00 | 91 | 1016.6 |
| 20260506121805 | 43 | 0 | 0.0 | 0.0 | 0.00 | 0.06 | 0.00 | 91 | 1016.6 |
| 20260506121625 | 43 | 0 | 0.0 | 0.0 | 0.00 | 0.06 | 0.00 | 90 | 1016.7 |
| 20260506121425 | 43 | 0 | 0.0 | 0.0 | 0.00 | 0.06 | 0.00 | 91 | 1016.6 |
| 20260506121204 | 43 | 0 | 0.0 | 0.0 | 0.00 | 0.06 | 0.00 | 90 | 1016.6 |
| 20260506121004 | 43 | 0 | 0.0 | 0.0 | 0.00 | 0.06 | 0.00 | 91 | 1016.6 |
| 20260506120804 | 43 | 0 | 0.0 | 0.0 | 0.00 | 0.06 | 0.00 | 91 | 1016.6 |
| 20260506120604 | 43 | 0 | 0.0 | 0.0 | 0.00 | 0.06 | 0.00 | 92 | 1016.6 |
| 20260506120425 | 43 | 0 | 0.0 | 0.0 | 0.00 | 0.06 | 0.00 | 92 | 1016.5 |
| 20260506120225 | 43 | 0 | 0.0 | 0.0 | 0.00 | 0.06 | 0.00 | 92 | 1016.6 |
| 20260506120004 | 43 | 0 | 0.0 | 0.0 | 0.00 | 0.06 | 0.00 | 92 | 1016.6 |
| 20260506115804 | 43 | 0 | 0.0 | 0.0 | 0.00 | 0.06 | 0.00 | 92 | 1016.5 |
| 20260506115604 | 43 | 0 | 0.0 | 0.0 | 0.00 | 0.06 | 0.00 | 92 | 1016.6 |
| 20260506115425 | 43 | 0 | 0.0 | 0.0 | 0.00 | 0.06 | 0.00 | 92 | 1016.6 |
| 20260506115204 | 43 | 0 | 0.0 | 0.0 | 0.00 | 0.06 | 0.00 | 92 | 1016.6 |
| 20260506115004 | 43 | 0 | 0.0 | 0.0 | 0.00 | 0.06 | 0.00 | 92 | 1016.5 |
| 20260506114804 | 43 | 0 | 0.0 | 0.0 | 0.00 | 0.06 | 0.00 | 92 | 1016.5 |
| 20260506114604 | 43 | 0 | 0.0 | 0.0 | 0.00 | 0.06 | 0.00 | 92 | 1016.6 |
| 20260506114404 | 43 | 0 | 0.0 | 0.0 | 0.00 | 0.06 | 0.00 | 92 | 1016.6 |
| 20260506114204 | 43 | 0 | 0.0 | 0.0 | 0.00 | 0.06 | 0.00 | 92 | 1016.5 |
| 20260506114004 | 43 | 0 | 0.0 | 0.0 | 0.00 | 0.06 | 0.00 | 92 | 1016.5 |
| 20260506113825 | 43 | 0 | 0.0 | 0.0 | 0.00 | 0.06 | 0.00 | 92 | 1016.5 |
| 20260506113604 | 43 | 0 | 0.0 | 0.0 | 0.00 | 0.06 | 0.00 | 92 | 1016.5 |
| 20260506113425 | 43 | 0 | 0.0 | 0.0 | 0.00 | 0.06 | 0.00 | 93 | 1016.5 |
| 20260506113204 | 43 | 103 | 0.0 | 1.0 | 0.00 | 0.06 | 0.00 | 93 | 1016.5 |
| 20260506113004 | 43 | 97 | 0.0 | 2.0 | 0.00 | 0.06 | 0.00 | 93 | 1016.5 |
| 20260506112804 | 43 | 97 | 0.0 | 2.0 | 0.00 | 0.06 | 0.00 | 93 | 1016.5 |
| 20260506112604 | 43 | 97 | 0.0 | 2.0 | 0.00 | 0.06 | 0.00 | 93 | 1016.5 |
| 20260506112425 | 43 | 97 | 0.0 | 2.0 | 0.00 | 0.06 | 0.00 | 93 | 1016.5 |
| 20260506112204 | 43 | 97 | 0.0 | 2.0 | 0.00 | 0.06 | 0.00 | 93 | 1016.5 |
| 20260506112004 | 43 | 0 | 0.0 | 0.0 | 0.00 | 0.06 | 0.00 | 93 | 1016.5 |
| 20260506111804 | 43 | 0 | 0.0 | 0.0 | 0.00 | 0.06 | 0.00 | 93 | 1016.6 |
| 20260506111625 | 43 | 0 | 0.0 | 0.0 | 0.00 | 0.06 | 0.00 | 93 | 1016.5 |
| 20260506111425 | 43 | 0 | 0.0 | 0.0 | 0.00 | 0.06 | 0.00 | 93 | 1016.5 |
| 20260506111204 | 43 | 0 | 0.0 | 0.0 | 0.00 | 0.06 | 0.00 | 93 | 1016.5 |
| 20260506111004 | 43 | 0 | 0.0 | 0.0 | 0.00 | 0.06 | 0.00 | 93 | 1016.5 |
| 20260506110804 | 43 | 0 | 0.0 | 0.0 | 0.00 | 0.06 | 0.00 | 93 | 1016.5 |
| 20260506110604 | 43 | 0 | 0.0 | 0.0 | 0.00 | 0.06 | 0.00 | 93 | 1016.5 |
| 20260506110404 | 43 | 0 | 0.0 | 0.0 | 0.00 | 0.06 | 0.00 | 93 | 1016.5 |
| 20260506110204 | 43 | 0 | 0.0 | 0.0 | 0.00 | 0.06 | 0.00 | 93 | 1016.5 |
| 20260506110004 | 43 | 0 | 0.0 | 0.0 | 0.00 | 0.06 | 0.00 | 93 | 1016.5 |
| 20260506105804 | 43 | 0 | 0.0 | 0.0 | 0.00 | 0.06 | 0.00 | 93 | 1016.5 |
| 20260506105625 | 43 | 0 | 0.0 | 0.0 | 0.00 | 0.06 | 0.00 | 93 | 1016.4 |
| 20260506105404 | 43 | 0 | 0.0 | 0.0 | 0.00 | 0.06 | 0.00 | 93 | 1016.5 |
| 20260506105204 | 43 | 0 | 0.0 | 0.0 | 0.00 | 0.06 | 0.00 | 93 | 1016.5 |
| 20260506105004 | 43 | 0 | 0.0 | 0.0 | 0.00 | 0.06 | 0.00 | 93 | 1016.4 |
| 20260506104804 | 43 | 0 | 0.0 | 0.0 | 0.00 | 0.06 | 0.00 | 93 | 1016.5 |
| 20260506104625 | 43 | 0 | 0.0 | 0.0 | 0.00 | 0.06 | 0.00 | 93 | 1016.5 |
| 20260506104404 | 43 | 0 | 0.0 | 0.0 | 0.00 | 0.06 | 0.00 | 93 | 1016.5 |
| 20260506104225 | 43 | 0 | 0.0 | 0.0 | 0.00 | 0.06 | 0.00 | 93 | 1016.5 |
| 20260506104025 | 43 | 0 | 0.0 | 0.0 | 0.00 | 0.06 | 0.00 | 93 | 1016.5 |
| 20260506103804 | 43 | 0 | 0.0 | 0.0 | 0.00 | 0.06 | 0.00 | 93 | 1016.5 |
| 20260506103625 | 43 | 0 | 0.0 | 0.0 | 0.00 | 0.06 | 0.00 | 93 | 1016.5 |
| 20260506103404 | 43 | 0 | 0.0 | 0.0 | 0.00 | 0.06 | 0.00 | 93 | 1016.5 |
| 20260506103204 | 43 | 0 | 0.0 | 0.0 | 0.00 | 0.06 | 0.00 | 93 | 1016.5 |
| 20260506103004 | 43 | 0 | 0.0 | 0.0 | 0.00 | 0.06 | 0.00 | 93 | 1016.5 |
| 20260506102825 | 43 | 0 | 0.0 | 0.0 | 0.00 | 0.06 | 0.00 | 93 | 1016.5 |
| 20260506102625 | 43 | 0 | 0.0 | 0.0 | 0.00 | 0.06 | 0.00 | 93 | 1016.6 |
| 20260506102404 | 43 | 0 | 0.0 | 0.0 | 0.00 | 0.06 | 0.00 | 92 | 1016.5 |
| 20260506102225 | 43 | 0 | 0.0 | 0.0 | 0.00 | 0.06 | 0.00 | 92 | 1016.5 |
| 20260506102004 | 43 | 0 | 0.0 | 0.0 | 0.00 | 0.06 | 0.00 | 92 | 1016.6 |
| 20260506101825 | 43 | 0 | 0.0 | 0.0 | 0.00 | 0.06 | 0.00 | 92 | 1016.5 |
| 20260506101604 | 43 | 0 | 0.0 | 0.0 | 0.00 | 0.06 | 0.00 | 92 | 1016.5 |
| 20260506101404 | 43 | 0 | 0.0 | 0.0 | 0.00 | 0.06 | 0.00 | 92 | 1016.5 |
| 20260506101204 | 43 | 0 | 0.0 | 0.0 | 0.00 | 0.06 | 0.00 | 92 | 1016.4 |
| 20260506101004 | 43 | 0 | 0.0 | 0.0 | 0.00 | 0.06 | 0.00 | 92 | 1016.5 |
| 20260506100804 | 43 | 0 | 0.0 | 0.0 | 0.00 | 0.06 | 0.00 | 92 | 1016.5 |
| 20260506100604 | 43 | 0 | 0.0 | 0.0 | 0.00 | 0.06 | 0.00 | 92 | 1016.5 |
| 20260506100404 | 43 | 0 | 0.0 | 0.0 | 0.00 | 0.06 | 0.00 | 92 | 1016.5 |
| 20260506100204 | 44 | 0 | 0.0 | 0.0 | 0.00 | 0.06 | 0.00 | 92 | 1016.5 |
| 20260506100004 | 44 | 0 | 0.0 | 0.0 | 0.00 | 0.06 | 0.00 | 92 | 1016.5 |
| 20260506095804 | 44 | 0 | 0.0 | 0.0 | 0.00 | 0.06 | 0.00 | 92 | 1016.5 |
| 20260506095625 | 44 | 0 | 0.0 | 0.0 | 0.00 | 0.06 | 0.00 | 92 | 1016.6 |
| 20260506095404 | 44 | 0 | 0.0 | 0.0 | 0.00 | 0.06 | 0.00 | 92 | 1016.6 |
| 20260506095204 | 44 | 0 | 0.0 | 0.0 | 0.00 | 0.06 | 0.00 | 92 | 1016.5 |
| 20260506095004 | 44 | 0 | 0.0 | 0.0 | 0.00 | 0.06 | 0.00 | 92 | 1016.5 |
| 20260506094804 | 44 | 0 | 0.0 | 0.0 | 0.00 | 0.06 | 0.00 | 92 | 1016.6 |
| 20260506094604 | 44 | 0 | 0.0 | 0.0 | 0.00 | 0.06 | 0.00 | 92 | 1016.5 |
| 20260506094404 | 44 | 0 | 0.0 | 0.0 | 0.00 | 0.06 | 0.00 | 92 | 1016.5 |
| 20260506094204 | 44 | 0 | 0.0 | 0.0 | 0.00 | 0.06 | 0.00 | 92 | 1016.5 |
| 20260506094004 | 44 | 0 | 0.0 | 0.0 | 0.00 | 0.06 | 0.00 | 92 | 1016.5 |
| 20260506093825 | 44 | 0 | 0.0 | 0.0 | 0.00 | 0.06 | 0.00 | 92 | 1016.6 |
| 20260506093604 | 44 | 104 | 0.0 | 1.0 | 0.00 | 0.06 | 0.00 | 92 | 1016.6 |
| 20260506093404 | 44 | 97 | 0.0 | 3.0 | 0.00 | 0.06 | 0.00 | 92 | 1016.5 |
| 20260506093204 | 44 | 94 | 1.0 | 3.0 | 0.00 | 0.06 | 0.00 | 92 | 1016.4 |
| 20260506093025 | 44 | 94 | 1.0 | 3.0 | 0.00 | 0.06 | 0.00 | 91 | 1016.4 |
| 20260506092804 | 44 | 94 | 1.0 | 3.0 | 0.00 | 0.06 | 0.00 | 91 | 1016.4 |
| 20260506092604 | 44 | 92 | 1.0 | 3.0 | 0.00 | 0.06 | 0.00 | 91 | 1016.4 |
| 20260506092404 | 44 | 88 | 0.0 | 3.0 | 0.00 | 0.06 | 0.00 | 91 | 1016.5 |
| 20260506092204 | 44 | 0 | 0.0 | 0.0 | 0.00 | 0.06 | 0.00 | 92 | 1016.5 |
| 20260506092025 | 44 | 99 | 0.0 | 1.0 | 0.00 | 0.06 | 0.00 | 91 | 1016.5 |
| 20260506091804 | 44 | 99 | 0.0 | 1.0 | 0.00 | 0.06 | 0.00 | 91 | 1016.5 |
| 20260506091604 | 44 | 99 | 0.0 | 1.0 | 0.00 | 0.06 | 0.00 | 91 | 1016.6 |
| 20260506091404 | 44 | 99 | 0.0 | 1.0 | 0.00 | 0.06 | 0.00 | 91 | 1016.6 |
| 20260506091204 | 44 | 99 | 0.0 | 1.0 | 0.00 | 0.06 | 0.00 | 91 | 1016.7 |
| 20260506091004 | 44 | 0 | 0.0 | 0.0 | 0.00 | 0.06 | 0.00 | 91 | 1016.7 |
| 20260506090804 | 44 | 0 | 0.0 | 0.0 | 0.00 | 0.06 | 0.00 | 91 | 1016.7 |
| 20260506090625 | 44 | 0 | 0.0 | 0.0 | 0.00 | 0.06 | 0.00 | 91 | 1016.7 |
| 20260506090425 | 44 | 0 | 0.0 | 0.0 | 0.00 | 0.06 | 0.00 | 91 | 1016.8 |
| 20260506090204 | 44 | 0 | 0.0 | 0.0 | 0.00 | 0.06 | 0.00 | 91 | 1016.8 |
| 20260506090004 | 44 | 0 | 0.0 | 0.0 | 0.00 | 0.06 | 0.00 | 91 | 1016.9 |
| 20260506085825 | 44 | 0 | 0.0 | 0.0 | 0.00 | 0.06 | 0.00 | 90 | 1016.8 |
| 20260506085625 | 44 | 0 | 0.0 | 0.0 | 0.00 | 0.06 | 0.00 | 90 | 1016.8 |
| 20260506085404 | 44 | 0 | 0.0 | 0.0 | 0.00 | 0.06 | 0.00 | 90 | 1016.9 |
| 20260506085204 | 44 | 0 | 0.0 | 0.0 | 0.00 | 0.06 | 0.00 | 90 | 1017.0 |
| 20260506085025 | 44 | 0 | 0.0 | 0.0 | 0.00 | 0.06 | 0.00 | 90 | 1017.0 |
| 20260506084804 | 44 | 0 | 0.0 | 0.0 | 0.00 | 0.06 | 0.00 | 90 | 1017.0 |
| 20260506084604 | 44 | 0 | 0.0 | 0.0 | 0.00 | 0.06 | 0.00 | 89 | 1017.0 |
| 20260506084425 | 44 | 0 | 0.0 | 0.0 | 0.00 | 0.06 | 0.00 | 89 | 1016.9 |
| 20260506084204 | 44 | 0 | 0.0 | 0.0 | 0.00 | 0.06 | 0.00 | 89 | 1017.0 |
| 20260506084004 | 45 | 0 | 0.0 | 0.0 | 0.00 | 0.06 | 0.00 | 89 | 1017.0 |
| 20260506083804 | 45 | 0 | 0.0 | 0.0 | 0.00 | 0.07 | 0.00 | 89 | 1017.1 |
| 20260506083604 | 45 | 0 | 0.0 | 0.0 | 0.00 | 0.07 | 0.00 | 89 | 1017.1 |
| 20260506083404 | 45 | 0 | 0.0 | 0.0 | 0.00 | 0.07 | 0.00 | 89 | 1017.0 |
| 20260506083204 | 45 | 0 | 0.0 | 0.0 | 0.00 | 0.07 | 0.00 | 89 | 1017.0 |
| 20260506083004 | 45 | 0 | 0.0 | 0.0 | 0.00 | 0.07 | 0.00 | 88 | 1017.0 |
| 20260506082804 | 45 | 0 | 0.0 | 0.0 | 0.00 | 0.07 | 0.00 | 88 | 1017.0 |
| 20260506082604 | 45 | 0 | 0.0 | 0.0 | 0.00 | 0.07 | 0.00 | 88 | 1017.0 |
| 20260506082404 | 45 | 0 | 0.0 | 0.0 | 0.00 | 0.07 | 0.00 | 88 | 1017.0 |
| 20260506082203 | 45 | 0 | 0.0 | 0.0 | 0.00 | 0.07 | 0.00 | 87 | 1017.0 |
| 20260506082004 | 46 | 0 | 0.0 | 0.0 | 0.00 | 0.07 | 0.00 | 87 | 1017.0 |
| 20260506081825 | 46 | 0 | 0.0 | 0.0 | 0.00 | 0.07 | 0.00 | 87 | 1016.9 |
| 20260506081625 | 46 | 0 | 0.0 | 0.0 | 0.00 | 0.07 | 0.00 | 87 | 1016.9 |
| 20260506081403 | 46 | 0 | 0.0 | 0.0 | 0.00 | 0.07 | 0.00 | 86 | 1016.9 |
| 20260506081203 | 46 | 0 | 0.0 | 0.0 | 0.00 | 0.07 | 0.00 | 86 | 1017.0 |
| 20260506081004 | 46 | 0 | 0.0 | 0.0 | 0.00 | 0.07 | 0.00 | 86 | 1016.9 |
| 20260506080804 | 46 | 0 | 0.0 | 0.0 | 0.00 | 0.08 | 0.00 | 86 | 1016.9 |
| 20260506080604 | 46 | 0 | 0.0 | 0.0 | 0.00 | 0.08 | 0.00 | 86 | 1017.0 |
| 20260506080404 | 47 | 0 | 0.0 | 0.0 | 0.00 | 0.08 | 0.00 | 85 | 1017.0 |
| 20260506080204 | 47 | 0 | 0.0 | 0.0 | 0.00 | 0.08 | 0.00 | 85 | 1017.0 |
| 20260506073404 | 48 | 0 | 0.0 | 0.0 | 0.00 | 0.09 | 0.00 | 84 | 1017.2 |
| 20260506073204 | 48 | 0 | 0.0 | 0.0 | 0.00 | 0.09 | 0.00 | 84 | 1017.3 |
| 20260506073004 | 48 | 0 | 0.0 | 0.0 | 0.00 | 0.09 | 0.00 | 84 | 1017.3 |
| 20260506072825 | 48 | 0 | 0.0 | 0.0 | 0.00 | 0.09 | 0.00 | 84 | 1017.3 |
| 20260506072604 | 48 | 0 | 0.0 | 0.0 | 0.00 | 0.09 | 0.00 | 84 | 1017.3 |
| 20260506072403 | 48 | 0 | 0.0 | 0.0 | 0.00 | 0.09 | 0.00 | 84 | 1017.3 |
| 20260506072204 | 48 | 0 | 0.0 | 0.0 | 0.00 | 0.09 | 0.00 | 83 | 1017.3 |
| 20260506072025 | 48 | 0 | 0.0 | 0.0 | 0.00 | 0.09 | 0.00 | 83 | 1017.3 |
| 20260506071804 | 48 | 0 | 0.0 | 0.0 | 0.00 | 0.09 | 0.00 | 83 | 1017.3 |
| 20260506071604 | 48 | 0 | 0.0 | 0.0 | 0.00 | 0.09 | 0.00 | 83 | 1017.3 |
| 20260506071404 | 48 | 0 | 0.0 | 0.0 | 0.00 | 0.09 | 0.00 | 83 | 1017.4 |
| 20260506071225 | 48 | 301 | 0.0 | 3.0 | 0.00 | 0.09 | 0.00 | 83 | 1017.4 |
| 20260506071004 | 48 | 301 | 0.0 | 3.0 | 0.00 | 0.09 | 0.00 | 83 | 1017.3 |
| 20260506070804 | 48 | 301 | 0.0 | 3.0 | 0.00 | 0.09 | 0.00 | 83 | 1017.3 |
| 20260506070625 | 48 | 301 | 0.0 | 3.0 | 0.00 | 0.09 | 0.00 | 83 | 1017.3 |
| 20260506070404 | 48 | 301 | 0.0 | 3.0 | 0.00 | 0.09 | 0.00 | 83 | 1017.3 |
| 20260506070204 | 48 | 305 | 0.0 | 2.0 | 0.00 | 0.09 | 0.00 | 83 | 1017.3 |
| 20260506062404 | 49 | 0 | 0.0 | 0.0 | 0.00 | 0.09 | 0.09 | 82 | 1016.9 |
| 20260506062225 | 49 | 0 | 0.0 | 0.0 | 0.00 | 0.09 | 0.09 | 81 | 1016.9 |
| 20260506062025 | 49 | 0 | 0.0 | 0.0 | 0.00 | 0.09 | 0.09 | 81 | 1016.9 |
| 20260506061804 | 49 | 0 | 0.0 | 0.0 | 0.00 | 0.09 | 0.09 | 81 | 1016.9 |
| 20260506061604 | 49 | 345 | 0.0 | 3.0 | 0.00 | 0.09 | 0.09 | 81 | 1016.9 |
| 20260506061404 | 49 | 339 | 0.0 | 3.0 | 0.00 | 0.09 | 0.09 | 81 | 1016.9 |
| 20260506061204 | 49 | 334 | 0.0 | 4.0 | 0.00 | 0.09 | 0.09 | 81 | 1016.9 |
| 20260506061004 | 49 | 330 | 0.0 | 4.0 | 0.00 | 0.09 | 0.09 | 80 | 1016.9 |
| 20260506060825 | 49 | 326 | 1.0 | 4.0 | 0.00 | 0.09 | 0.09 | 80 | 1016.9 |
| 20260506060604 | 49 | 324 | 1.0 | 4.0 | 0.00 | 0.09 | 0.09 | 80 | 1016.9 |
| 20260506060404 | 49 | 316 | 0.0 | 4.0 | 0.00 | 0.09 | 0.09 | 79 | 1016.9 |
| 20260506060204 | 49 | 313 | 0.0 | 4.0 | 0.00 | 0.09 | 0.09 | 79 | 1016.8 |
| 20260506051404 | 50 | 296 | 0.0 | 3.0 | 0.00 | 0.09 | 0.09 | 76 | 1016.5 |
| 20260506051204 | 50 | 0 | 0.0 | 0.0 | 0.00 | 0.09 | 0.09 | 76 | 1016.4 |
| 20260506051003 | 50 | 0 | 0.0 | 0.0 | 0.00 | 0.09 | 0.09 | 76 | 1016.4 |
| 20260506050804 | 50 | 0 | 0.0 | 0.0 | 0.00 | 0.09 | 0.09 | 76 | 1016.4 |
| 20260506050604 | 50 | 289 | 0.0 | 3.0 | 0.00 | 0.09 | 0.09 | 75 | 1016.4 |
| 20260506050404 | 50 | 289 | 0.0 | 3.0 | 0.00 | 0.09 | 0.09 | 75 | 1016.3 |
| 20260506050204 | 50 | 289 | 0.0 | 3.0 | 0.00 | 0.09 | 0.09 | 75 | 1016.3 |
| 20260506045004 | 50 | 286 | 1.0 | 4.0 | 0.00 | 0.09 | 0.09 | 75 | 1016.1 |
| 20260506044804 | 50 | 286 | 1.0 | 4.0 | 0.00 | 0.09 | 0.09 | 74 | 1016.1 |
| 20260506044603 | 50 | 287 | 1.0 | 4.0 | 0.00 | 0.09 | 0.09 | 74 | 1016.1 |
| 20260506044425 | 50 | 287 | 1.0 | 4.0 | 0.00 | 0.09 | 0.09 | 74 | 1016.1 |
| 20260506044204 | 50 | 303 | 1.0 | 4.0 | 0.00 | 0.09 | 0.09 | 74 | 1016.0 |
| 20260506044025 | 50 | 307 | 1.0 | 4.0 | 0.00 | 0.09 | 0.09 | 74 | 1016.0 |
| 20260506043804 | 50 | 309 | 1.0 | 4.0 | 0.00 | 0.09 | 0.09 | 74 | 1016.0 |
| 20260506043625 | 50 | 311 | 1.0 | 4.0 | 0.00 | 0.09 | 0.09 | 74 | 1016.0 |
| 20260506043404 | 50 | 311 | 1.0 | 4.0 | 0.00 | 0.09 | 0.09 | 73 | 1016.0 |
| 20260506043204 | 50 | 300 | 1.0 | 5.0 | 0.00 | 0.09 | 0.09 | 73 | 1016.0 |
| 20260506043003 | 50 | 302 | 1.0 | 5.0 | 0.00 | 0.09 | 0.09 | 73 | 1015.9 |
| 20260506042805 | 50 | 302 | 2.0 | 5.0 | 0.00 | 0.09 | 0.09 | 73 | 1015.9 |
| 20260506042604 | 50 | 302 | 2.0 | 5.0 | 0.00 | 0.09 | 0.09 | 73 | 1015.9 |
| 20260506042425 | 50 | 302 | 2.0 | 5.0 | 0.00 | 0.09 | 0.09 | 73 | 1015.9 |
| 20260506042203 | 50 | 309 | 1.0 | 5.0 | 0.00 | 0.09 | 0.09 | 72 | 1015.9 |
| 20260506042004 | 50 | 308 | 1.0 | 5.0 | 0.00 | 0.09 | 0.09 | 72 | 1015.8 |
| 20260506041803 | 51 | 306 | 1.0 | 5.0 | 0.00 | 0.09 | 0.09 | 72 | 1015.8 |
| 20260506041604 | 51 | 307 | 1.0 | 5.0 | 0.00 | 0.09 | 0.09 | 72 | 1015.7 |
| 20260506041425 | 51 | 299 | 0.0 | 5.0 | 0.00 | 0.09 | 0.09 | 72 | 1015.7 |
| 20260506041204 | 51 | 281 | 0.0 | 3.0 | 0.00 | 0.09 | 0.09 | 72 | 1015.7 |
| 20260506041004 | 51 | 281 | 0.0 | 3.0 | 0.00 | 0.09 | 0.09 | 72 | 1015.7 |
| 20260506040803 | 51 | 284 | 0.0 | 3.0 | 0.00 | 0.09 | 0.09 | 72 | 1015.7 |
| 20260506040604 | 51 | 296 | 1.0 | 5.0 | 0.00 | 0.09 | 0.09 | 72 | 1015.7 |
| 20260506040404 | 51 | 296 | 1.0 | 5.0 | 0.00 | 0.09 | 0.09 | 72 | 1015.7 |
| 20260506040204 | 51 | 296 | 1.0 | 5.0 | 0.00 | 0.09 | 0.09 | 72 | 1015.6 |
| 20260506040004 | 51 | 294 | 1.0 | 5.0 | 0.00 | 0.09 | 0.09 | 72 | 1015.6 |
| 20260506035804 | 51 | 293 | 2.0 | 5.0 | 0.00 | 0.09 | 0.09 | 71 | 1015.6 |
| 20260506035603 | 51 | 288 | 1.0 | 5.0 | 0.00 | 0.09 | 0.09 | 71 | 1015.6 |
| 20260506035404 | 51 | 287 | 1.0 | 5.0 | 0.00 | 0.09 | 0.09 | 71 | 1015.5 |
| 20260506035225 | 51 | 287 | 1.0 | 4.0 | 0.00 | 0.09 | 0.09 | 71 | 1015.5 |
| 20260506035004 | 51 | 286 | 1.0 | 4.0 | 0.00 | 0.09 | 0.09 | 72 | 1015.5 |
| 20260506034804 | 51 | 285 | 1.0 | 4.0 | 0.00 | 0.09 | 0.09 | 72 | 1015.4 |
| 20260506034603 | 51 | 288 | 1.0 | 4.0 | 0.00 | 0.09 | 0.09 | 71 | 1015.4 |
| 20260506034404 | 51 | 290 | 1.0 | 4.0 | 0.00 | 0.09 | 0.09 | 71 | 1015.4 |
| 20260506034205 | 51 | 287 | 1.0 | 4.0 | 0.00 | 0.09 | 0.09 | 72 | 1015.4 |
| 20260506034004 | 51 | 289 | 1.0 | 4.0 | 0.00 | 0.09 | 0.09 | 71 | 1015.3 |
| 20260506033804 | 51 | 289 | 1.0 | 4.0 | 0.00 | 0.09 | 0.09 | 71 | 1015.3 |
| 20260506033604 | 51 | 290 | 1.0 | 4.0 | 0.00 | 0.09 | 0.09 | 71 | 1015.2 |
| 20260506033425 | 51 | 290 | 1.0 | 4.0 | 0.00 | 0.09 | 0.09 | 71 | 1015.2 |
| 20260506033204 | 51 | 291 | 1.0 | 4.0 | 0.00 | 0.09 | 0.09 | 71 | 1015.2 |
| 20260506033025 | 51 | 292 | 1.0 | 5.0 | 0.00 | 0.09 | 0.09 | 71 | 1015.2 |
| 20260506032825 | 51 | 294 | 1.0 | 7.0 | 0.00 | 0.09 | 0.09 | 71 | 1015.2 |
| 20260506032603 | 51 | 296 | 1.0 | 7.0 | 0.00 | 0.09 | 0.09 | 71 | 1015.2 |
| 20260506032403 | 51 | 296 | 1.0 | 7.0 | 0.00 | 0.09 | 0.09 | 71 | 1015.2 |
| 20260506032204 | 51 | 296 | 1.0 | 7.0 | 0.00 | 0.09 | 0.09 | 70 | 1015.1 |
| 20260506032004 | 51 | 295 | 0.0 | 7.0 | 0.00 | 0.09 | 0.09 | 71 | 1015.1 |
| 20260506031825 | 51 | 288 | 0.0 | 5.0 | 0.00 | 0.09 | 0.09 | 71 | 1015.1 |
| 20260506031625 | 52 | 288 | 1.0 | 5.0 | 0.00 | 0.09 | 0.09 | 71 | 1015.1 |
| 20260506031404 | 52 | 289 | 1.0 | 5.0 | 0.00 | 0.09 | 0.09 | 71 | 1015.0 |
| 20260506031203 | 52 | 289 | 1.0 | 5.0 | 0.00 | 0.09 | 0.09 | 70 | 1015.0 |
| 20260506031004 | 52 | 290 | 1.0 | 5.0 | 0.00 | 0.09 | 0.09 | 70 | 1014.9 |
| 20260506030804 | 52 | 289 | 1.0 | 4.0 | 0.00 | 0.09 | 0.09 | 70 | 1014.9 |
| 20260506030604 | 52 | 291 | 2.0 | 6.0 | 0.00 | 0.09 | 0.09 | 70 | 1014.9 |
| 20260506030404 | 52 | 292 | 2.0 | 6.0 | 0.00 | 0.09 | 0.09 | 70 | 1014.8 |
| 20260506030204 | 52 | 291 | 1.0 | 6.0 | 0.00 | 0.09 | 0.09 | 70 | 1014.8 |
| 20260506030004 | 52 | 294 | 1.0 | 6.0 | 0.00 | 0.09 | 0.09 | 70 | 1014.7 |
| 20260506025803 | 52 | 295 | 2.0 | 6.0 | 0.00 | 0.09 | 0.09 | 70 | 1014.7 |
| 20260506025625 | 52 | 292 | 1.0 | 5.0 | 0.00 | 0.09 | 0.09 | 70 | 1014.6 |
| 20260506025403 | 52 | 294 | 1.0 | 5.0 | 0.00 | 0.09 | 0.09 | 70 | 1014.6 |
| 20260506025204 | 52 | 295 | 1.0 | 5.0 | 0.00 | 0.09 | 0.09 | 70 | 1014.6 |
| 20260506025004 | 52 | 291 | 1.0 | 5.0 | 0.00 | 0.09 | 0.09 | 70 | 1014.5 |
| 20260506024804 | 52 | 294 | 0.0 | 3.0 | 0.00 | 0.09 | 0.09 | 70 | 1014.6 |
| 20260506024625 | 52 | 308 | 0.0 | 3.0 | 0.00 | 0.09 | 0.09 | 70 | 1014.5 |
| 20260506024404 | 52 | 293 | 0.0 | 1.0 | 0.00 | 0.09 | 0.09 | 70 | 1014.5 |
| 20260506024203 | 52 | 282 | 0.0 | 4.0 | 0.00 | 0.09 | 0.09 | 70 | 1014.4 |
| 20260506024004 | 52 | 289 | 0.0 | 5.0 | 0.00 | 0.09 | 0.09 | 70 | 1014.4 |
| 20260506023804 | 52 | 289 | 1.0 | 5.0 | 0.00 | 0.09 | 0.09 | 70 | 1014.4 |
| 20260506023604 | 52 | 298 | 1.0 | 5.0 | 0.00 | 0.09 | 0.09 | 70 | 1014.4 |
| 20260506023403 | 52 | 300 | 1.0 | 5.0 | 0.00 | 0.09 | 0.09 | 70 | 1014.3 |
| 20260506023204 | 52 | 302 | 1.0 | 5.0 | 0.00 | 0.09 | 0.09 | 70 | 1014.3 |
| 20260506023004 | 52 | 301 | 1.0 | 5.0 | 0.00 | 0.09 | 0.09 | 70 | 1014.3 |
| 20260506022825 | 52 | 304 | 1.0 | 5.0 | 0.00 | 0.09 | 0.09 | 70 | 1014.3 |
| 20260506022604 | 52 | 309 | 1.0 | 5.0 | 0.00 | 0.09 | 0.09 | 71 | 1014.2 |
| 20260506022404 | 52 | 312 | 1.0 | 5.0 | 0.00 | 0.09 | 0.09 | 70 | 1014.2 |
| 20260506022204 | 52 | 310 | 1.0 | 5.0 | 0.00 | 0.09 | 0.09 | 70 | 1014.1 |
| 20260506022003 | 52 | 312 | 1.0 | 5.0 | 0.00 | 0.09 | 0.09 | 70 | 1014.0 |
| 20260506021804 | 52 | 313 | 1.0 | 5.0 | 0.00 | 0.09 | 0.09 | 70 | 1014.0 |
| 20260506021625 | 52 | 304 | 1.0 | 7.0 | 0.00 | 0.09 | 0.09 | 70 | 1014.0 |
| 20260506021403 | 52 | 295 | 2.0 | 7.0 | 0.00 | 0.09 | 0.09 | 70 | 1014.0 |
| 20260506021204 | 52 | 295 | 1.0 | 7.0 | 0.00 | 0.09 | 0.09 | 70 | 1014.0 |
| 20260506021004 | 52 | 292 | 1.0 | 7.0 | 0.00 | 0.09 | 0.09 | 71 | 1014.0 |
| 20260506020804 | 52 | 292 | 1.0 | 7.0 | 0.00 | 0.09 | 0.09 | 71 | 1014.0 |
| 20260506020604 | 52 | 300 | 1.0 | 7.0 | 0.00 | 0.09 | 0.09 | 71 | 1013.9 |
| 20260506020403 | 52 | 305 | 1.0 | 4.0 | 0.00 | 0.09 | 0.09 | 71 | 1013.8 |
| 20260506020225 | 52 | 306 | 1.0 | 4.0 | 0.00 | 0.09 | 0.09 | 70 | 1013.8 |
| 20260506020025 | 52 | 308 | 1.0 | 6.0 | 0.00 | 0.09 | 0.09 | 70 | 1013.7 |
| 20260506015803 | 52 | 313 | 2.0 | 6.0 | 0.00 | 0.09 | 0.09 | 70 | 1013.7 |
| 20260506015604 | 52 | 314 | 1.0 | 6.0 | 0.00 | 0.09 | 0.09 | 70 | 1013.7 |
| 20260506015404 | 52 | 312 | 1.0 | 6.0 | 0.00 | 0.09 | 0.09 | 70 | 1013.7 |
| 20260506015204 | 52 | 312 | 1.0 | 6.0 | 0.00 | 0.09 | 0.09 | 70 | 1013.7 |
| 20260506015024 | 52 | 308 | 1.0 | 7.0 | 0.00 | 0.09 | 0.09 | 70 | 1013.7 |
| 20260506014804 | 52 | 292 | 2.0 | 7.0 | 0.00 | 0.09 | 0.09 | 70 | 1013.7 |
| 20260506014604 | 53 | 289 | 2.0 | 7.0 | 0.00 | 0.09 | 0.09 | 70 | 1013.6 |
| 20260506014404 | 53 | 290 | 2.0 | 7.0 | 0.00 | 0.09 | 0.09 | 70 | 1013.6 |
| 20260506014224 | 53 | 291 | 2.0 | 7.0 | 0.00 | 0.09 | 0.09 | 70 | 1013.5 |
| 20260506014004 | 53 | 296 | 2.0 | 7.0 | 0.00 | 0.09 | 0.09 | 70 | 1013.5 |
| 20260506013803 | 53 | 298 | 2.0 | 7.0 | 0.00 | 0.09 | 0.09 | 69 | 1013.5 |
| 20260506013603 | 53 | 301 | 1.0 | 6.0 | 0.00 | 0.09 | 0.09 | 70 | 1013.5 |
| 20260506013404 | 53 | 299 | 1.0 | 6.0 | 0.00 | 0.09 | 0.09 | 70 | 1013.5 |
| 20260506013204 | 53 | 296 | 2.0 | 6.0 | 0.00 | 0.09 | 0.09 | 70 | 1013.4 |
| 20260506013004 | 53 | 296 | 2.0 | 7.0 | 0.00 | 0.09 | 0.09 | 69 | 1013.4 |
| 20260506012804 | 53 | 298 | 2.0 | 7.0 | 0.00 | 0.09 | 0.09 | 69 | 1013.4 |
| 20260506012604 | 53 | 300 | 3.0 | 9.0 | 0.00 | 0.09 | 0.09 | 69 | 1013.3 |
| 20260506012404 | 54 | 300 | 3.0 | 9.0 | 0.00 | 0.09 | 0.09 | 69 | 1013.3 |
| 20260506012203 | 54 | 299 | 3.0 | 9.0 | 0.00 | 0.09 | 0.09 | 69 | 1013.4 |
| 20260506012025 | 54 | 296 | 3.0 | 9.0 | 0.00 | 0.09 | 0.09 | 69 | 1013.3 |
| 20260506011804 | 54 | 295 | 3.0 | 9.0 | 0.00 | 0.09 | 0.09 | 68 | 1013.3 |
| 20260506011604 | 54 | 298 | 3.0 | 9.0 | 0.00 | 0.09 | 0.09 | 69 | 1013.3 |
| 20260506011403 | 54 | 305 | 3.0 | 9.0 | 0.00 | 0.09 | 0.09 | 69 | 1013.3 |
| 20260506011204 | 54 | 306 | 3.0 | 9.0 | 0.00 | 0.09 | 0.09 | 68 | 1013.3 |
| 20260506011025 | 54 | 316 | 3.0 | 12.0 | 0.00 | 0.09 | 0.09 | 69 | 1013.3 |
| 20260506010803 | 54 | 320 | 3.0 | 12.0 | 0.00 | 0.09 | 0.09 | 68 | 1013.3 |
| 20260506010603 | 54 | 318 | 3.0 | 12.0 | 0.00 | 0.09 | 0.09 | 69 | 1013.3 |
| 20260506010404 | 54 | 316 | 2.0 | 12.0 | 0.00 | 0.09 | 0.09 | 68 | 1013.3 |
| 20260506010203 | 54 | 309 | 2.0 | 12.0 | 0.00 | 0.09 | 0.09 | 68 | 1013.3 |
| 20260506010004 | 54 | 294 | 3.0 | 11.0 | 0.00 | 0.09 | 0.09 | 68 | 1013.2 |
| 20260506005804 | 54 | 295 | 3.0 | 11.0 | 0.00 | 0.09 | 0.09 | 68 | 1013.2 |
| 20260506005603 | 54 | 294 | 3.0 | 11.0 | 0.00 | 0.09 | 0.09 | 69 | 1013.3 |
| 20260506005425 | 54 | 295 | 4.0 | 11.0 | 0.00 | 0.09 | 0.09 | 68 | 1013.3 |
| 20260506005204 | 54 | 299 | 4.0 | 11.0 | 0.00 | 0.09 | 0.09 | 68 | 1013.2 |
| 20260506005003 | 54 | 304 | 4.0 | 10.0 | 0.00 | 0.09 | 0.09 | 68 | 1013.1 |
| 20260506004804 | 54 | 302 | 4.0 | 10.0 | 0.00 | 0.09 | 0.09 | 69 | 1013.2 |
| 20260506004604 | 54 | 302 | 3.0 | 10.0 | 0.00 | 0.09 | 0.09 | 69 | 1013.3 |
| 20260506004404 | 54 | 301 | 3.0 | 10.0 | 0.00 | 0.09 | 0.09 | 67 | 1013.2 |
| 20260506004203 | 54 | 300 | 2.0 | 8.0 | 0.00 | 0.09 | 0.09 | 67 | 1013.2 |
| 20260506004004 | 55 | 302 | 2.0 | 8.0 | 0.00 | 0.09 | 0.09 | 67 | 1013.2 |